Torna al catalogo

CZ-6A DEB

AttivoSSO
NORAD 54338·DEBRIS·🇨🇳 China

Lanciato Nov 11, 2022 da Taiyuan Satellite Launch Center

Loading…

Prossimi Passaggi (prossime 24 ore)

TLE

AggiornatoSource: Space-Track

Epoca: Sep 14, 2026, 06:16 UTC

1 54338U 22151CH  26257.26145148  .00000739  00000-0  40338-3 0  9997
2 54338  98.8396 263.0419 0040831  73.1806 287.3840 14.14683550197381

Traccia CZ-6A DEB in tempo reale con AllMySat

Download on the App Store